This is the latest recevied weather packets stored in our database for station/object KB2FWP. If no packets are shown the sender has not sent any weather packets the latest 10 day(s).
| Time | Temp. | Humidity | Pressure | Rain* | Wind** | Luminosity | Snow |
|---|---|---|---|---|---|---|---|
| 1788113704 | 25° C | 80% | 1021.5 hPa | 0 mm | - | - | - |
| 1788112810 | 25° C | 77% | 1021.5 hPa | 0 mm | - | - | - |
| 1788111907 | 24.44° C | 78% | 1021.8 hPa | 0 mm | - | - | - |
| 1788111002 | 25° C | 76% | 1021.8 hPa | 0 mm | - | - | - |
| 1788110161 | 25° C | 74% | 1021.9 hPa | 0 mm | - | - | - |
| 1788109258 | 24.44° C | 76% | 1022 hPa | 0 mm | - | - | - |
| 1788108357 | 25° C | 74% | 1022.4 hPa | 0 mm | - | - | - |
| 1788107455 | 25° C | 72% | 1022.2 hPa | 0 mm | - | - | - |
| 1788106577 | 25.56° C | 72% | 1022.3 hPa | 0 mm | - | - | - |
| 1788105653 | 25° C | 70% | 1022.4 hPa | 0 mm | - | - | - |
| 1788104751 | 25.56° C | 70% | 1022.6 hPa | 0 mm | - | - | - |
| 1788103849 | 25° C | 72% | 1022.8 hPa | 0 mm | - | - | - |
| 1788102946 | 24.44° C | 74% | 1022.9 hPa | 0 mm | - | - | - |
| 1788102069 | 23.89° C | 73% | 1022.9 hPa | 0 mm | - | - | - |
| 1788101142 | 24.44° C | 69% | 1023 hPa | 0 mm | - | - | - |
| 1788100243 | 23.89° C | 66% | 1023.1 hPa | 0 mm | - | - | - |
| 1788099338 | 23.89° C | 63% | 1023.3 hPa | 0 mm | - | - | - |
| 1788098435 | 23.89° C | 70% | 1023.5 hPa | 0 mm | - | - | - |
| 1788097539 | 23.33° C | 75% | 1023.8 hPa | 0 mm | - | - | - |
| 1788096631 | 23.33° C | 75% | 1023.8 hPa | 0 mm | - | - | - |
| 1788095726 | 22.78° C | 78% | 1023.9 hPa | 0 mm | - | - | - |
| 1788094823 | 22.22° C | 78% | 1024 hPa | 0 mm | - | - | - |
| 1788093925 | 22.22° C | 81% | 1024.1 hPa | 0 mm | - | - | - |
| 1788093020 | 21.67° C | 86% | 1024.1 hPa | 0 mm | - | - | - |
| 1788092118 | 21.11° C | 88% | 1024.1 hPa | 0 mm | - | - | - |
* Rain latest hour (hover to see other rain measurements)
** Current wind speed in m/s (hover to see current wind gust speed)